Time,TemperatureF,DewpointF,PressureIn,WindDirection,WindDirectionDegrees,WindSpeedMPH,WindSpeedGustMPH,Humidity,HourlyPrecipIn,Conditions,Clouds,dailyrainin,SoftwareType,DateUTC
2013-11-10 19:55:00,41.5,21.7,-100.00,South,184,0.0,6.0,45,0.00,,,0.00,meteohub,2013-11-11 00:55:00,
2013-11-10 19:56:00,41.5,21.7,-100.00,South,186,0.0,6.0,45,0.00,,,0.00,meteohub,2013-11-11 00:56:00,
2013-11-10 19:57:00,41.5,21.7,-100.00,South,174,0.0,6.0,45,0.00,,,0.00,meteohub,2013-11-11 00:57:00,
2013-11-10 20:16:00,41.5,21.2,-100.00,SSW,197,0.0,5.0,44,0.00,,,0.00,meteohub,2013-11-11 01:16:00,
2013-11-10 20:17:00,41.5,21.2,-100.00,SSW,200,0.0,5.0,44,0.00,,,0.00,meteohub,2013-11-11 01:17:00,
2013-11-10 20:22:00,41.5,21.2,-100.00,SE,144,0.0,-999.0,44,-99.99,,,0.00,meteohub,2013-11-11 01:22:00,
2013-11-10 20:23:00,41.5,20.7,-100.00,WNW,294,0.0,-999.0,43,-99.99,,,0.00,meteohub,2013-11-11 01:23:00,
2013-11-10 20:25:00,41.7,20.8,-100.00,West,280,0.0,-999.0,43,-99.99,,,0.00,meteohub,2013-11-11 01:25:00,
2013-11-10 20:26:00,41.7,20.8,-100.00,West,280,0.0,-999.0,43,-99.99,,,0.00,meteohub,2013-11-11 01:26:00,
2013-11-10 20:28:00,41.7,20.8,-100.00,West,280,0.0,-999.0,43,-99.99,,,0.00,meteohub,2013-11-11 01:28:00,
2013-11-10 20:30:00,41.7,20.8,-100.00,NW,308,4.0,-999.0,43,-99.99,,,0.00,meteohub,2013-11-11 01:30:00,
2013-11-10 20:31:00,41.7,20.8,-100.00,WSW,245,4.0,-999.0,43,-99.99,,,0.00,meteohub,2013-11-11 01:31:00,
2013-11-10 20:35:00,41.9,21.0,-100.00,WSW,253,0.0,-999.0,43,-99.99,,,0.00,meteohub,2013-11-11 01:35:00,
2013-11-10 20:36:00,41.9,21.0,-100.00,SW,223,3.0,-999.0,43,-99.99,,,0.00,meteohub,2013-11-11 01:36:00,
2013-11-10 20:38:00,41.9,21.0,-100.00,NNW,328,0.0,-999.0,43,-99.99,,,0.00,meteohub,2013-11-11 01:38:00,
2013-11-10 20:40:00,41.9,21.0,-100.00,SSE,166,0.0,-999.0,43,-99.99,,,0.00,meteohub,2013-11-11 01:40:00,
2013-11-10 20:41:00,41.9,21.0,-100.00,NE,38,3.0,-999.0,43,-99.99,,,0.00,meteohub,2013-11-11 01:41:00,
2013-11-10 20:42:00,41.9,21.0,-100.00,North,1,0.0,-999.0,43,-99.99,,,0.00,meteohub,2013-11-11 01:42:00,
2013-11-10 20:43:00,42.1,21.2,-100.00,West,280,0.0,-999.0,43,-99.99,,,0.00,meteohub,2013-11-11 01:43:00,
2013-11-10 20:44:00,42.1,21.2,-100.00,NNW,336,0.0,-999.0,43,-99.99,,,0.00,meteohub,2013-11-11 01:44:00,
2013-11-10 20:45:00,42.1,21.2,-100.00,WNW,298,0.0,-999.0,43,-99.99,,,0.00,meteohub,2013-11-11 01:45:00,
2013-11-10 20:46:00,42.1,21.2,-100.00,WNW,298,0.0,-999.0,43,-99.99,,,0.00,meteohub,2013-11-11 01:46:00,
2013-11-10 20:48:00,42.1,21.2,-100.00,WNW,298,0.0,-999.0,43,-99.99,,,0.00,meteohub,2013-11-11 01:48:00,
2013-11-10 20:49:00,41.9,21.0,-100.00,SW,224,0.0,-999.0,43,-99.99,,,0.00,meteohub,2013-11-11 01:49:00,
2013-11-10 20:51:00,41.9,20.5,-100.00,SSE,159,0.0,-999.0,42,-99.99,,,0.00,meteohub,2013-11-11 01:51:00,
2013-11-10 20:52:00,41.9,21.0,-100.00,SSE,159,0.0,-999.0,43,-99.99,,,0.00,meteohub,2013-11-11 01:52:00,
2013-11-10 20:56:00,41.7,20.8,-100.00,South,181,0.0,-999.0,43,-99.99,,,0.00,meteohub,2013-11-11 01:56:00,
2013-11-10 20:57:00,41.7,20.8,-100.00,South,182,0.0,-999.0,43,-99.99,,,0.00,meteohub,2013-11-11 01:57:00,
2013-11-10 20:58:00,41.7,20.8,-100.00,SW,217,0.0,-999.0,43,-99.99,,,0.00,meteohub,2013-11-11 01:58:00,
2013-11-10 20:59:00,41.7,20.8,-100.00,SW,217,0.0,-999.0,43,-99.99,,,0.00,meteohub,2013-11-11 01:59:00,
2013-11-10 21:01:00,41.5,20.7,-100.00,South,170,0.0,5.0,43,0.00,,,0.00,meteohub,2013-11-11 02:01:00,
2013-11-10 21:02:00,41.5,20.7,-100.00,SSW,210,0.0,5.0,43,0.00,,,0.00,meteohub,2013-11-11 02:02:00,
2013-11-10 21:03:00,41.5,20.7,-100.00,SSW,210,0.0,5.0,43,0.00,,,0.00,meteohub,2013-11-11 02:03:00,
2013-11-10 21:06:00,41.5,20.7,-100.00,WNW,302,0.0,5.0,43,0.00,,,0.00,meteohub,2013-11-11 02:06:00,
2013-11-10 21:07:00,41.5,20.7,-100.00,WNW,285,0.0,5.0,43,0.00,,,0.00,meteohub,2013-11-11 02:07:00,
2013-11-10 21:08:00,41.5,20.7,-100.00,WNW,285,3.0,5.0,43,0.00,,,0.00,meteohub,2013-11-11 02:08:00,
2013-11-10 21:09:00,41.5,20.7,-100.00,WSW,241,0.0,5.0,43,0.00,,,0.00,meteohub,2013-11-11 02:09:00,
2013-11-10 21:14:00,41.4,20.5,-100.00,SSE,156,0.0,6.0,43,0.00,,,0.00,meteohub,2013-11-11 02:14:00,
2013-11-10 21:15:00,41.4,20.5,-100.00,NW,323,5.0,6.0,43,0.00,,,0.00,meteohub,2013-11-11 02:15:00,
2013-11-10 21:18:00,41.5,20.7,-100.00,West,270,0.0,6.0,43,0.00,,,0.00,meteohub,2013-11-11 02:18:00,
2013-11-10 21:20:00,41.5,21.2,-100.00,NW,305,0.0,6.0,44,0.00,,,0.00,meteohub,2013-11-11 02:20:00,
2013-11-10 21:21:00,41.5,21.2,-100.00,NW,305,0.0,6.0,44,0.00,,,0.00,meteohub,2013-11-11 02:21:00,
2013-11-10 21:22:00,41.5,21.2,-100.00,NW,313,3.0,6.0,44,0.00,,,0.00,meteohub,2013-11-11 02:22:00,
2013-11-10 21:24:00,41.9,21.6,-100.00,WNW,285,4.0,6.0,44,0.00,,,0.00,meteohub,2013-11-11 02:24:00,
2013-11-10 21:26:00,42.1,21.7,-100.00,South,181,0.0,10.0,44,0.00,,,0.00,meteohub,2013-11-11 02:26:00,
2013-11-10 21:27:00,42.3,21.9,-100.00,SSW,199,2.0,10.0,44,0.00,,,0.00,meteohub,2013-11-11 02:27:00,
2013-11-10 21:28:00,42.3,21.9,-100.00,SSW,204,0.0,10.0,44,0.00,,,0.00,meteohub,2013-11-11 02:28:00,
2013-11-10 21:30:00,42.4,21.6,-100.00,SSW,204,0.0,10.0,43,0.00,,,0.00,meteohub,2013-11-11 02:30:00,
2013-11-10 21:32:00,42.6,21.7,-100.00,NNW,330,4.0,10.0,43,0.00,,,0.00,meteohub,2013-11-11 02:32:00,
2013-11-10 21:33:00,42.6,21.7,-100.00,SSW,209,5.0,10.0,43,0.00,,,0.00,meteohub,2013-11-11 02:33:00,
2013-11-10 21:35:00,42.8,21.4,-100.00,NW,316,4.0,10.0,42,0.00,,,0.00,meteohub,2013-11-11 02:35:00,
2013-11-10 21:38:00,43.0,20.8,-100.00,WNW,285,2.0,10.0,41,0.00,,,0.00,meteohub,2013-11-11 02:38:00,
2013-11-10 21:39:00,43.2,21.0,-100.00,West,265,0.0,10.0,41,0.00,,,0.00,meteohub,2013-11-11 02:39:00,
2013-11-10 21:43:00,43.2,21.0,-100.00,SW,223,4.0,8.0,41,0.00,,,0.00,meteohub,2013-11-11 02:43:00,
2013-11-10 21:44:00,43.3,21.2,-100.00,NW,314,3.0,8.0,41,0.00,,,0.00,meteohub,2013-11-11 02:44:00,
2013-11-10 21:45:00,43.3,21.2,-100.00,SE,143,0.0,8.0,41,0.00,,,0.00,meteohub,2013-11-11 02:45:00,
2013-11-10 21:46:00,43.3,21.2,-100.00,West,270,0.0,8.0,41,0.00,,,0.00,meteohub,2013-11-11 02:46:00,
2013-11-10 21:50:00,43.2,21.0,-100.00,SSW,193,0.0,8.0,41,0.00,,,0.00,meteohub,2013-11-11 02:50:00,
2013-11-10 21:51:00,43.2,21.0,-100.00,NW,324,3.0,8.0,41,0.00,,,0.00,meteohub,2013-11-11 02:51:00,
2013-11-10 21:52:00,43.2,21.0,-100.00,WNW,285,3.0,8.0,41,0.00,,,0.00,meteohub,2013-11-11 02:52:00,
2013-11-10 21:55:00,43.0,20.8,-100.00,WSW,252,0.0,8.0,41,0.00,,,0.00,meteohub,2013-11-11 02:55:00,
2013-11-10 21:57:00,43.0,20.8,-100.00,West,277,4.0,8.0,41,0.00,,,0.00,meteohub,2013-11-11 02:57:00,
2013-11-10 21:58:00,43.0,20.3,-100.00,NNW,346,3.0,8.0,40,0.00,,,0.00,meteohub,2013-11-11 02:58:00,
2013-11-10 21:59:00,43.0,20.3,-100.00,NNW,328,0.0,8.0,40,0.00,,,0.00,meteohub,2013-11-11 02:59:00,
2013-11-10 22:01:00,43.0,20.8,-100.00,West,274,0.0,5.0,41,0.00,,,0.00,meteohub,2013-11-11 03:01:00,
2013-11-10 22:02:00,42.8,20.7,-100.00,NW,326,2.0,5.0,41,0.00,,,0.00,meteohub,2013-11-11 03:02:00,
2013-11-10 22:03:00,42.8,20.7,-100.00,SSE,149,0.0,5.0,41,0.00,,,0.00,meteohub,2013-11-11 03:03:00,
2013-11-10 22:06:00,43.0,20.3,-100.00,WNW,289,0.0,5.0,40,0.00,,,0.00,meteohub,2013-11-11 03:06:00,
2013-11-10 22:07:00,43.0,20.3,-100.00,WNW,289,0.0,5.0,40,0.00,,,0.00,meteohub,2013-11-11 03:07:00,
2013-11-10 22:08:00,43.0,20.3,-100.00,WNW,289,0.0,5.0,40,0.00,,,0.00,meteohub,2013-11-11 03:08:00,
2013-11-10 22:10:00,43.0,20.3,-100.00,NW,317,4.0,5.0,40,0.00,,,0.00,meteohub,2013-11-11 03:10:00,
2013-11-10 22:12:00,43.2,20.5,-100.00,SSW,196,0.0,5.0,40,0.00,,,0.00,meteohub,2013-11-11 03:12:00,
2013-11-10 22:13:00,43.2,20.5,-100.00,NW,311,6.0,6.0,40,0.00,,,0.00,meteohub,2013-11-11 03:13:00,
2013-11-10 22:16:00,43.3,20.7,-100.00,NW,308,5.0,7.0,40,0.00,,,0.00,meteohub,2013-11-11 03:16:00,
2013-11-10 22:17:00,43.3,20.7,-100.00,NW,308,3.0,7.0,40,0.00,,,0.00,meteohub,2013-11-11 03:17:00,
2013-11-10 22:18:00,43.3,20.7,-100.00,South,187,0.0,7.0,40,0.00,,,0.00,meteohub,2013-11-11 03:18:00,
2013-11-10 22:20:00,43.5,20.8,-100.00,South,186,0.0,7.0,40,0.00,,,0.00,meteohub,2013-11-11 03:20:00,
2013-11-10 22:21:00,43.5,20.8,-100.00,South,188,0.0,9.0,40,0.00,,,0.00,meteohub,2013-11-11 03:21:00,
2013-11-10 22:23:00,43.5,20.8,-100.00,East,85,2.0,9.0,40,0.00,,,0.00,meteohub,2013-11-11 03:23:00,
2013-11-10 22:24:00,43.5,20.1,-100.00,NNW,330,4.0,9.0,39,0.00,,,0.00,meteohub,2013-11-11 03:24:00,
2013-11-10 22:26:00,43.7,20.3,-100.00,NNW,337,2.0,9.0,39,0.00,,,0.00,meteohub,2013-11-11 03:26:00,
2013-11-10 22:28:00,43.7,20.3,-100.00,West,261,4.0,9.0,39,0.00,,,0.00,meteohub,2013-11-11 03:28:00,
2013-11-10 22:29:00,43.7,20.3,-100.00,NE,43,4.0,9.0,39,0.00,,,0.00,meteohub,2013-11-11 03:29:00,
2013-11-10 22:32:00,44.1,20.7,-100.00,NNW,332,4.0,9.0,39,0.00,,,0.00,meteohub,2013-11-11 03:32:00,
2013-11-10 22:33:00,44.1,20.7,-100.00,NNW,333,0.0,9.0,39,0.00,,,0.00,meteohub,2013-11-11 03:33:00,
2013-11-10 22:37:00,44.2,20.3,-100.00,NNW,337,0.0,6.0,38,0.00,,,0.00,meteohub,2013-11-11 03:37:00,
2013-11-10 22:40:00,44.2,20.8,-100.00,West,274,0.0,6.0,39,0.00,,,0.00,meteohub,2013-11-11 03:40:00,
2013-11-10 22:44:00,44.2,20.3,-100.00,NW,324,2.0,6.0,38,0.00,,,0.00,meteohub,2013-11-11 03:44:00,
2013-11-10 22:45:00,44.2,20.3,-100.00,SW,226,4.0,6.0,38,0.00,,,0.00,meteohub,2013-11-11 03:45:00,
2013-11-10 22:46:00,44.4,20.5,-100.00,SSW,194,0.0,8.0,38,0.00,,,0.00,meteohub,2013-11-11 03:46:00,
2013-11-10 22:47:00,44.4,20.5,-100.00,SSE,168,2.0,8.0,38,0.00,,,0.00,meteohub,2013-11-11 03:47:00,
2013-11-10 22:49:00,44.4,20.5,-100.00,SSE,164,3.0,8.0,38,0.00,,,0.00,meteohub,2013-11-11 03:49:00,
2013-11-10 22:50:00,44.6,20.5,-100.00,West,277,0.0,8.0,38,0.00,,,0.00,meteohub,2013-11-11 03:50:00,
2013-11-10 22:51:00,44.6,20.5,-100.00,West,275,0.0,8.0,38,0.00,,,0.00,meteohub,2013-11-11 03:51:00,
2013-11-10 22:53:00,44.6,20.5,-100.00,NW,307,0.0,8.0,38,0.00,,,0.00,meteohub,2013-11-11 03:53:00,
2013-11-10 22:54:00,44.6,20.5,-100.00,NW,307,0.0,8.0,38,0.00,,,0.00,meteohub,2013-11-11 03:54:00,
2013-11-10 22:55:00,44.6,20.5,-100.00,NW,307,0.0,8.0,38,0.00,,,0.00,meteohub,2013-11-11 03:55:00,
2013-11-10 22:57:00,44.4,20.5,-100.00,WSW,254,6.0,8.0,38,0.00,,,0.00,meteohub,2013-11-11 03:57:00,
2013-11-10 22:59:00,44.4,20.5,-100.00,South,189,4.0,8.0,38,0.00,,,0.00,meteohub,2013-11-11 03:59:00,
2013-11-10 23:00:00,44.4,20.5,-100.00,NW,318,3.0,6.0,38,0.00,,,0.00,meteohub,2013-11-11 04:00:00,
2013-11-10 23:01:00,44.4,20.5,-100.00,SSE,152,3.0,6.0,38,0.00,,,0.00,meteohub,2013-11-11 04:01:00,
2013-11-10 23:05:00,44.4,20.5,-100.00,SW,235,2.0,6.0,38,0.00,,,0.00,meteohub,2013-11-11 04:05:00,
2013-11-10 23:06:00,44.4,20.5,-100.00,ENE,59,0.0,7.0,38,0.00,,,0.00,meteohub,2013-11-11 04:06:00,
2013-11-10 23:07:00,44.4,20.5,-100.00,SW,225,3.0,7.0,38,0.00,,,0.00,meteohub,2013-11-11 04:07:00,
2013-11-10 23:08:00,44.4,20.5,-100.00,WNW,302,3.0,7.0,38,0.00,,,0.00,meteohub,2013-11-11 04:08:00,
2013-11-10 23:09:00,44.4,20.5,-100.00,North,353,2.0,7.0,38,0.00,,,0.00,meteohub,2013-11-11 04:09:00,
2013-11-10 23:10:00,44.4,21.0,-100.00,NW,326,4.0,7.0,39,0.00,,,0.00,meteohub,2013-11-11 04:10:00,
2013-11-10 23:13:00,44.4,21.0,-100.00,South,172,3.0,7.0,39,0.00,,,0.00,meteohub,2013-11-11 04:13:00,
2013-11-10 23:14:00,44.2,20.8,-100.00,NW,312,6.0,7.0,39,0.00,,,0.00,meteohub,2013-11-11 04:14:00,
2013-11-10 23:15:00,44.2,20.8,-100.00,WNW,301,0.0,7.0,39,0.00,,,0.00,meteohub,2013-11-11 04:15:00,
2013-11-10 23:16:00,44.2,20.8,-100.00,SE,143,0.0,15.0,39,0.00,,,0.00,meteohub,2013-11-11 04:16:00,
2013-11-10 23:18:00,44.2,20.8,-100.00,NW,304,6.0,15.0,39,0.00,,,0.00,meteohub,2013-11-11 04:18:00,
2013-11-10 23:21:00,44.1,20.7,-100.00,NW,314,3.0,15.0,39,0.00,,,0.00,meteohub,2013-11-11 04:21:00,
2013-11-10 23:22:00,43.9,20.5,-100.00,NW,315,2.0,15.0,39,0.00,,,0.00,meteohub,2013-11-11 04:22:00,
2013-11-10 23:23:00,43.9,20.5,-100.00,NW,315,0.0,15.0,39,0.00,,,0.00,meteohub,2013-11-11 04:23:00,
2013-11-10 23:24:00,43.9,20.5,-100.00,West,265,0.0,15.0,39,0.00,,,0.00,meteohub,2013-11-11 04:24:00,
2013-11-10 23:25:00,43.7,20.3,-100.00,North,2,6.0,15.0,39,0.00,,,0.00,meteohub,2013-11-11 04:25:00,
2013-11-10 23:27:00,43.7,20.3,-100.00,West,265,6.0,10.0,39,0.00,,,0.00,meteohub,2013-11-11 04:27:00,
2013-11-10 23:29:00,43.5,20.1,-100.00,West,278,6.0,10.0,39,0.00,,,0.00,meteohub,2013-11-11 04:29:00,
2013-11-10 23:30:00,43.5,20.1,-100.00,West,270,4.0,10.0,39,0.00,,,0.00,meteohub,2013-11-11 04:30:00,
2013-11-10 23:32:00,43.3,19.4,-100.00,West,262,6.0,10.0,38,0.00,,,0.00,meteohub,2013-11-11 04:32:00,
2013-11-10 23:34:00,43.3,19.4,-100.00,SW,214,4.0,10.0,38,0.00,,,0.00,meteohub,2013-11-11 04:34:00,
2013-11-10 23:35:00,43.2,19.2,-100.00,WSW,244,4.0,10.0,38,0.00,,,0.00,meteohub,2013-11-11 04:35:00,
2013-11-10 23:37:00,43.2,19.2,-100.00,SW,232,3.0,11.0,38,0.00,,,0.00,meteohub,2013-11-11 04:37:00,
2013-11-10 23:40:00,43.0,19.0,-100.00,NNW,332,4.0,11.0,38,0.00,,,0.00,meteohub,2013-11-11 04:40:00,
2013-11-10 23:41:00,42.8,18.9,-100.00,West,269,5.0,11.0,38,0.00,,,0.00,meteohub,2013-11-11 04:41:00,
2013-11-10 23:43:00,42.8,18.9,-100.00,NNW,332,3.0,11.0,38,0.00,,,0.00,meteohub,2013-11-11 04:43:00,
2013-11-10 23:45:00,42.8,18.9,-100.00,NW,315,3.0,11.0,38,0.00,,,0.00,meteohub,2013-11-11 04:45:00,
2013-11-10 23:46:00,42.8,18.9,-100.00,SSE,162,0.0,11.0,38,0.00,,,0.00,meteohub,2013-11-11 04:46:00,
2013-11-10 23:49:00,42.4,18.7,-100.00,NW,309,0.0,11.0,38,0.00,,,0.00,meteohub,2013-11-11 04:49:00,
2013-11-10 23:52:00,42.4,18.7,-100.00,WNW,291,5.0,10.0,38,0.00,,,0.00,meteohub,2013-11-11 04:52:00,
2013-11-10 23:54:00,42.4,18.7,-100.00,SSW,210,5.0,10.0,38,0.00,,,0.00,meteohub,2013-11-11 04:54:00,
2013-11-10 23:55:00,42.4,18.7,-100.00,NNW,339,0.0,11.0,38,0.00,,,0.00,meteohub,2013-11-11 04:55:00,
2013-11-10 23:58:00,42.4,18.7,-100.00,NW,313,4.0,11.0,38,0.00,,,0.00,meteohub,2013-11-11 04:58:00,
2013-11-10 23:59:00,42.4,18.7,-100.00,South,187,3.0,11.0,38,0.00,,,0.00,meteohub,2013-11-11 04:59:00,